,,,PA_Meas_PMT16A,,PR_Meas_QMR101_102,,RH_Meas_QMH101,,SR_Meas_QMS101,,TA_Meas_QMH101,,GenWind,,GenWind,
date,time,status,PA,status,PR,status,RH,status,SR,status,TA,status,DirAvg,status,SpdAvg,
2011-11-12, 00:00:04,VALID,1001.27,VALID,0,VALID,92.4939,VALID,0,VALID,24.2458,VALID,323,VALID,0.647656,
2011-11-12, 00:01:04,VALID,1001.22,VALID,0,VALID,92.4863,VALID,0,VALID,24.2671,VALID,323,VALID,0.437891,
2011-11-12, 00:02:04,VALID,1001.19,VALID,0,VALID,92.4863,VALID,0,VALID,24.2866,VALID,323,VALID,0.369922,
2011-11-12, 00:03:04,VALID,1001.15,VALID,0,VALID,92.4634,VALID,0,VALID,24.3257,VALID,323,VALID,0,
2011-11-12, 00:04:04,VALID,1001.12,VALID,0,VALID,92.4176,VALID,0,VALID,24.3257,VALID,323,VALID,0,
2011-11-12, 00:05:04,VALID,1001.12,VALID,0,VALID,92.3794,VALID,0,VALID,24.3647,VALID,323,VALID,0,
2011-11-12, 00:06:04,VALID,1001.12,VALID,0,VALID,92.3108,VALID,0,VALID,24.3647,VALID,323,VALID,0.383203,
2011-11-12, 00:07:04,VALID,1001.11,VALID,0,VALID,92.2803,VALID,0,VALID,24.4037,VALID,323,VALID,0.573438,
2011-11-12, 00:08:04,VALID,1001.06,VALID,0,VALID,92.2116,VALID,0,VALID,24.3824,VALID,206,VALID,0.658984,
2011-11-12, 00:09:04,VALID,1001.08,VALID,0,VALID,92.12,VALID,0,VALID,24.4214,VALID,176,VALID,0.746875,
2011-11-12, 00:10:04,VALID,1001.11,VALID,0,VALID,91.9522,VALID,0,VALID,24.4623,VALID,170,VALID,0.758984,
2011-11-12, 00:11:04,VALID,1001.1,VALID,0,VALID,91.8148,VALID,0,VALID,24.4604,VALID,170,VALID,1.26719,
2011-11-12, 00:12:04,VALID,1001.15,VALID,0,VALID,91.6165,VALID,0,VALID,24.5404,VALID,172,VALID,1.32852,
2011-11-12, 00:13:04,VALID,1001.14,VALID,0,VALID,91.3266,VALID,0,VALID,24.558,VALID,172,VALID,0.916797,
2011-11-12, 00:14:04,VALID,1001.14,VALID,0,VALID,91.0824,VALID,0,VALID,24.5989,VALID,172,VALID,0.712109,
2011-11-12, 00:15:04,VALID,1001.15,VALID,0,VALID,90.8993,VALID,0,VALID,24.6166,VALID,172,VALID,0.616406,
2011-11-12, 00:16:04,VALID,1001.13,VALID,0,VALID,90.762,VALID,0,VALID,24.6361,VALID,195,VALID,0.825391,
2011-11-12, 00:17:04,VALID,1001.11,VALID,0,VALID,90.6323,VALID,0,VALID,24.6965,VALID,203,VALID,0.521484,
2011-11-12, 00:18:04,VALID,1001.14,VALID,0,VALID,90.4873,VALID,0,VALID,24.6965,VALID,190,VALID,0.905469,
2011-11-12, 00:19:04,VALID,1001.15,VALID,0,VALID,90.4263,VALID,0,VALID,24.7356,VALID,185,VALID,0.592969,
2011-11-12, 00:20:04,VALID,1001.12,VALID,0,VALID,90.3728,VALID,0,VALID,24.7551,VALID,166,VALID,1.21953,
2011-11-12, 00:21:04,VALID,1001.1,VALID,0,VALID,90.2966,VALID,0,VALID,24.7532,VALID,184,VALID,0.849609,
2011-11-12, 00:22:04,VALID,1001.04,VALID,0,VALID,90.1974,VALID,0,VALID,24.8136,VALID,174,VALID,1.02617,
2011-11-12, 00:23:04,VALID,1001.05,VALID,0,VALID,90.0753,VALID,0,VALID,24.8117,VALID,170,VALID,0.806641,
2011-11-12, 00:24:04,VALID,1001.08,VALID,0,VALID,89.9914,VALID,0,VALID,24.8332,VALID,171,VALID,1.06797,
2011-11-12, 00:25:04,VALID,1001.03,VALID,0,VALID,89.9151,VALID,0,VALID,24.8332,VALID,162,VALID,0.987891,
2011-11-12, 00:26:04,VALID,1001.03,VALID,0,VALID,89.854,VALID,0,VALID,24.8527,VALID,181,VALID,0.909766,
2011-11-12, 00:27:04,VALID,1000.99,VALID,0,VALID,89.7625,VALID,0,VALID,24.8527,VALID,186,VALID,0.730859,
2011-11-12, 00:28:04,VALID,1000.99,VALID,0,VALID,89.7167,VALID,0,VALID,24.8527,VALID,170,VALID,0.810156,
2011-11-12, 00:29:04,VALID,1000.98,VALID,0,VALID,89.6786,VALID,0,VALID,24.8527,VALID,164,VALID,0.681641,
2011-11-12, 00:30:04,VALID,1000.99,VALID,0,VALID,89.6633,VALID,0,VALID,24.8722,VALID,158,VALID,0.652344,
2011-11-12, 00:31:04,VALID,1000.99,VALID,0,VALID,89.648,VALID,0,VALID,24.8527,VALID,158,VALID,0.480859,
2011-11-12, 00:32:04,VALID,1001,VALID,0,VALID,89.7167,VALID,0,VALID,24.8527,VALID,158,VALID,0.06875,
2011-11-12, 00:33:04,VALID,1000.97,VALID,0,VALID,89.7854,VALID,0,VALID,24.8332,VALID,158,VALID,0,
2011-11-12, 00:34:04,VALID,1000.99,VALID,0,VALID,89.8311,VALID,0,VALID,24.8332,VALID,158,VALID,0,
2011-11-12, 00:35:04,VALID,1000.97,VALID,0,VALID,89.9532,VALID,0,VALID,24.8136,VALID,158,VALID,0,
2011-11-12, 00:36:04,VALID,1000.99,VALID,0,VALID,90.06,VALID,0,VALID,24.7941,VALID,158,VALID,0.438281,
2011-11-12, 00:37:04,VALID,1000.97,VALID,0,VALID,90.1058,VALID,0,VALID,24.8136,VALID,158,VALID,0.664063,
2011-11-12, 00:38:04,VALID,1000.94,VALID,0,VALID,90.1821,VALID,0,VALID,24.7727,VALID,158,VALID,0.442969,
2011-11-12, 00:39:04,VALID,1000.98,VALID,0,VALID,90.1897,VALID,0,VALID,24.7727,VALID,158,VALID,0.564062,
2011-11-12, 00:40:04,VALID,1000.93,VALID,0,VALID,90.2813,VALID,0,VALID,24.7746,VALID,158,VALID,0.312891,
2011-11-12, 00:41:04,VALID,1000.95,VALID,0,VALID,90.3652,VALID,0,VALID,24.7551,VALID,150,VALID,0.584375,
2011-11-12, 00:42:04,VALID,1000.94,VALID,0,VALID,90.5102,VALID,0,VALID,24.7356,VALID,136,VALID,0.619922,
2011-11-12, 00:43:04,VALID,1000.92,VALID,0,VALID,90.6399,VALID,0,VALID,24.7356,VALID,136,VALID,0.383984,
2011-11-12, 00:44:04,VALID,1000.91,VALID,0,VALID,90.7543,VALID,0,VALID,24.6946,VALID,136,VALID,0.611719,
2011-11-12, 00:45:04,VALID,1000.95,VALID,0,VALID,90.8688,VALID,0.104696,VALID,24.6946,VALID,136,VALID,0.379297,
2011-11-12, 00:46:04,VALID,1000.98,VALID,0,VALID,90.9374,VALID,0,VALID,24.6751,VALID,136,VALID,0,
2011-11-12, 00:47:04,VALID,1000.98,VALID,0,VALID,91.0214,VALID,0,VALID,24.6556,VALID,136,VALID,0,
2011-11-12, 00:48:04,VALID,1001,VALID,0,VALID,91.1129,VALID,0,VALID,24.6361,VALID,136,VALID,0,
2011-11-12, 00:49:04,VALID,1001.03,VALID,0,VALID,91.235,VALID,0,VALID,24.6166,VALID,136,VALID,0,
2011-11-12, 00:50:04,VALID,1001.03,VALID,0,VALID,91.3342,VALID,0,VALID,24.5971,VALID,136,VALID,0,
2011-11-12, 00:51:04,VALID,1001.05,VALID,0,VALID,91.4028,VALID,0,VALID,24.6184,VALID,136,VALID,0,
2011-11-12, 00:52:04,VALID,1001.02,VALID,0,VALID,91.4105,VALID,0,VALID,24.5775,VALID,136,VALID,0,
2011-11-12, 00:53:04,VALID,1001.05,VALID,0,VALID,91.4486,VALID,0,VALID,24.5775,VALID,136,VALID,0,
2011-11-12, 00:54:04,VALID,1001.05,VALID,0,VALID,91.5173,VALID,0,VALID,24.5794,VALID,136,VALID,0,
2011-11-12, 00:55:04,VALID,1001.05,VALID,0,VALID,91.5783,VALID,0,VALID,24.5775,VALID,136,VALID,0,
2011-11-12, 00:56:04,VALID,1001.07,VALID,0,VALID,91.6394,VALID,0,VALID,24.5794,VALID,136,VALID,0.625391,
2011-11-12, 00:57:04,VALID,1001.07,VALID,0,VALID,91.647,VALID,0,VALID,24.5989,VALID,136,VALID,0.382813,
2011-11-12, 00:58:04,VALID,1001.08,VALID,0,VALID,91.6851,VALID,0,VALID,24.558,VALID,136,VALID,0.505859,
2011-11-12, 00:59:04,VALID,1001.1,VALID,0,VALID,91.6623,VALID,0,VALID,24.5794,VALID,136,VALID,0.326953,
2011-11-12, 01:00:04,VALID,1001.1,VALID,0,VALID,91.6241,VALID,0,VALID,24.5775,VALID,136,VALID,0.139062,
2011-11-12, 01:01:04,VALID,1001.11,VALID,0,VALID,91.586,VALID,0,VALID,24.6184,VALID,136,VALID,0,
2011-11-12, 01:02:04,VALID,1001.07,VALID,0,VALID,91.5402,VALID,0,VALID,24.5971,VALID,136,VALID,0,
2011-11-12, 01:03:04,VALID,1001.1,VALID,0,VALID,91.5402,VALID,0,VALID,24.6184,VALID,136,VALID,0,
2011-11-12, 01:04:04,VALID,1001.11,VALID,0,VALID,91.5326,VALID,0,VALID,24.6184,VALID,136,VALID,0,
2011-11-12, 01:05:04,VALID,1001.08,VALID,0,VALID,91.5326,VALID,0,VALID,24.5971,VALID,136,VALID,0,
2011-11-12, 01:06:04,VALID,1001.07,VALID,0,VALID,91.4791,VALID,0,VALID,24.6184,VALID,136,VALID,0,
2011-11-12, 01:07:04,VALID,1001.09,VALID,0,VALID,91.4868,VALID,0,VALID,24.6184,VALID,136,VALID,0,
2011-11-12, 01:08:04,VALID,1001.06,VALID,0,VALID,91.502,VALID,0,VALID,24.5989,VALID,136,VALID,0,
2011-11-12, 01:09:04,VALID,1001.03,VALID,0,VALID,91.6241,VALID,0,VALID,24.5989,VALID,136,VALID,0.353516,
2011-11-12, 01:10:04,VALID,1001.07,VALID,0,VALID,91.6851,VALID,0,VALID,24.5971,VALID,136,VALID,0.423828,
2011-11-12, 01:11:04,VALID,1001.05,VALID,0,VALID,91.7309,VALID,0,VALID,24.5775,VALID,136,VALID,0.591406,
2011-11-12, 01:12:04,VALID,1001.06,VALID,0,VALID,91.792,VALID,0,VALID,24.5971,VALID,136,VALID,0.569141,
2011-11-12, 01:13:04,VALID,1001.04,VALID,0,VALID,91.7996,VALID,0,VALID,24.6184,VALID,136,VALID,0.428125,
2011-11-12, 01:14:04,VALID,1001.06,VALID,0,VALID,91.8377,VALID,0,VALID,24.5989,VALID,136,VALID,0.398828,
2011-11-12, 01:15:04,VALID,1001.03,VALID,0,VALID,91.8683,VALID,0,VALID,24.5989,VALID,136,VALID,0.468359,
2011-11-12, 01:16:04,VALID,1001,VALID,0,VALID,91.8759,VALID,0,VALID,24.5794,VALID,136,VALID,0.401953,
2011-11-12, 01:17:04,VALID,1001.03,VALID,0,VALID,91.8683,VALID,0,VALID,24.5775,VALID,136,VALID,0,
2011-11-12, 01:18:04,VALID,1001.01,VALID,0,VALID,91.853,VALID,0,VALID,24.5989,VALID,170,VALID,0.00585938,
2011-11-12, 01:19:04,VALID,1001.01,VALID,0,VALID,91.8454,VALID,0,VALID,24.6184,VALID,231,VALID,0,
2011-11-12, 01:20:04,VALID,1001.02,VALID,0,VALID,91.8301,VALID,0,VALID,24.5775,VALID,231,VALID,0,
2011-11-12, 01:21:04,VALID,1001.07,VALID,0,VALID,91.8377,VALID,0,VALID,24.5775,VALID,231,VALID,0.561719,
2011-11-12, 01:22:04,VALID,1001.04,VALID,0,VALID,91.8454,VALID,0,VALID,24.5989,VALID,231,VALID,0.232422,
2011-11-12, 01:23:04,VALID,1001.06,VALID,0,VALID,91.792,VALID,0,VALID,24.5385,VALID,231,VALID,0,
2011-11-12, 01:24:04,VALID,1001.02,VALID,0,VALID,91.8072,VALID,0,VALID,24.5404,VALID,231,VALID,0,
2011-11-12, 01:25:04,VALID,1001.03,VALID,0,VALID,91.8301,VALID,0,VALID,24.5209,VALID,231,VALID,0.237891,
2011-11-12, 01:26:04,VALID,1001.01,VALID,0,VALID,91.8301,VALID,0,VALID,24.4818,VALID,231,VALID,0.566797,
2011-11-12, 01:27:04,VALID,1001,VALID,0,VALID,91.8988,VALID,0,VALID,24.4623,VALID,231,VALID,0.850391,
2011-11-12, 01:28:04,VALID,1001,VALID,0,VALID,92.0666,VALID,0,VALID,24.4233,VALID,231,VALID,0.761328,
2011-11-12, 01:29:04,VALID,1000.98,VALID,0,VALID,92.1811,VALID,0,VALID,24.3629,VALID,231,VALID,0.769531,
2011-11-12, 01:30:04,VALID,1000.96,VALID,0,VALID,92.2497,VALID,0,VALID,24.3629,VALID,231,VALID,0.5875,
2011-11-12, 01:31:04,VALID,1000.98,VALID,0,VALID,92.3794,VALID,0,VALID,24.3647,VALID,231,VALID,0.5375,
2011-11-12, 01:32:04,VALID,1001.02,VALID,0,VALID,92.4405,VALID,0,VALID,24.3452,VALID,231,VALID,0.385938,
2011-11-12, 01:33:04,VALID,1000.99,VALID,0,VALID,92.4328,VALID,0,VALID,24.2848,VALID,231,VALID,0.0242187,
2011-11-12, 01:34:04,VALID,1001,VALID,0,VALID,92.4023,VALID,0,VALID,24.2671,VALID,231,VALID,0,
2011-11-12, 01:35:04,VALID,1000.97,VALID,0,VALID,92.3718,VALID,0,VALID,24.2281,VALID,231,VALID,0,
2011-11-12, 01:36:04,VALID,1000.99,VALID,0,VALID,92.3337,VALID,0,VALID,24.2086,VALID,231,VALID,0,
2011-11-12, 01:37:04,VALID,1000.97,VALID,0,VALID,92.3337,VALID,0,VALID,24.1696,VALID,231,VALID,0,
2011-11-12, 01:38:04,VALID,1000.95,VALID,0,VALID,92.3413,VALID,0,VALID,24.1305,VALID,231,VALID,0,
2011-11-12, 01:39:04,VALID,1000.98,VALID,0,VALID,92.4481,VALID,0,VALID,24.15,VALID,231,VALID,0,
2011-11-12, 01:40:04,VALID,1000.99,VALID,0,VALID,92.6236,VALID,0,VALID,24.1696,VALID,231,VALID,0.188672,
2011-11-12, 01:41:04,VALID,1001.01,VALID,0,VALID,92.7457,VALID,0,VALID,24.1891,VALID,231,VALID,0.273828,
2011-11-12, 01:42:04,VALID,1001.05,VALID,0,VALID,92.8372,VALID,0,VALID,24.1891,VALID,231,VALID,0,
2011-11-12, 01:43:04,VALID,1001.03,VALID,0,VALID,92.9288,VALID,0,VALID,24.2086,VALID,231,VALID,0,
2011-11-12, 01:44:04,VALID,1001.08,VALID,0,VALID,92.9745,VALID,0,VALID,24.1677,VALID,231,VALID,0,
2011-11-12, 01:45:04,VALID,1001.06,VALID,0,VALID,92.9822,VALID,0,VALID,24.1891,VALID,231,VALID,0,
2011-11-12, 01:46:04,VALID,1001.09,VALID,0,VALID,92.9822,VALID,0,VALID,24.1696,VALID,231,VALID,0,
2011-11-12, 01:47:04,VALID,1001.06,VALID,0,VALID,93.0051,VALID,0,VALID,24.15,VALID,231,VALID,0,
2011-11-12, 01:48:04,VALID,1001.05,VALID,0,VALID,93.0051,VALID,0,VALID,24.111,VALID,231,VALID,0,
2011-11-12, 01:49:04,VALID,1001.03,VALID,0,VALID,93.0737,VALID,0,VALID,24.0701,VALID,231,VALID,0,
2011-11-12, 01:50:04,VALID,1001.04,VALID,0,VALID,93.1653,VALID,0,VALID,24.0701,VALID,231,VALID,0.646484,
2011-11-12, 01:51:04,VALID,1001.02,VALID,0,VALID,93.2568,VALID,0,VALID,24.0915,VALID,69,VALID,0.879687,
2011-11-12, 01:52:04,VALID,1000.99,VALID,0,VALID,93.2797,VALID,0,VALID,24.0915,VALID,69,VALID,0.858984,
2011-11-12, 01:53:04,VALID,1000.98,VALID,0,VALID,93.3179,VALID,0,VALID,24.0897,VALID,69,VALID,0.983594,
2011-11-12, 01:54:04,VALID,1000.97,VALID,0,VALID,93.3026,VALID,0,VALID,24.111,VALID,69,VALID,0.804688,
2011-11-12, 01:55:04,VALID,1000.98,VALID,0,VALID,93.2416,VALID,0,VALID,24.0506,VALID,63,VALID,0.916797,
2011-11-12, 01:56:04,VALID,1000.92,VALID,0,VALID,93.1958,VALID,0,VALID,24.0329,VALID,63,VALID,0.673828,
2011-11-12, 01:57:04,VALID,1000.92,VALID,0,VALID,93.1729,VALID,0,VALID,24.0134,VALID,63,VALID,0.357812,
2011-11-12, 01:58:04,VALID,1000.89,VALID,0,VALID,93.1119,VALID,0,VALID,23.9549,VALID,63,VALID,0.357422,
2011-11-12, 01:59:04,VALID,1000.89,VALID,0,VALID,93.0585,VALID,0,VALID,23.9159,VALID,63,VALID,0.251563,
2011-11-12, 02:00:04,VALID,1000.88,VALID,0,VALID,93.0356,VALID,0,VALID,23.875,VALID,63,VALID,0.290625,
2011-11-12, 02:01:04,VALID,1000.85,VALID,0,VALID,93.0661,VALID,0,VALID,23.8573,VALID,63,VALID,0,
2011-11-12, 02:02:04,VALID,1000.82,VALID,0,VALID,93.089,VALID,0,VALID,23.8378,VALID,63,VALID,0,
2011-11-12, 02:03:04,VALID,1000.78,VALID,0,VALID,93.1271,VALID,0,VALID,23.797,VALID,63,VALID,0,
2011-11-12, 02:04:04,VALID,1000.79,VALID,0,VALID,93.1805,VALID,0,VALID,23.8183,VALID,63,VALID,0,
2011-11-12, 02:05:04,VALID,1000.77,VALID,0,VALID,93.2492,VALID,0,VALID,23.7988,VALID,63,VALID,0,
2011-11-12, 02:06:04,VALID,1000.76,VALID,0,VALID,93.2797,VALID,0,VALID,23.7793,VALID,63,VALID,0,
2011-11-12, 02:07:04,VALID,1000.73,VALID,0,VALID,93.356,VALID,0,VALID,23.7793,VALID,63,VALID,0,
2011-11-12, 02:08:04,VALID,1000.74,VALID,0,VALID,93.3408,VALID,0,VALID,23.7402,VALID,63,VALID,0,
2011-11-12, 02:09:04,VALID,1000.73,VALID,0,VALID,93.3866,VALID,0,VALID,23.7012,VALID,63,VALID,0,
2011-11-12, 02:10:04,VALID,1000.71,VALID,0,VALID,93.4705,VALID,0,VALID,23.7597,VALID,63,VALID,0,
2011-11-12, 02:11:04,VALID,1000.68,VALID,0,VALID,93.5315,VALID,0,VALID,23.7793,VALID,63,VALID,0.125,
2011-11-12, 02:12:04,VALID,1000.66,VALID,0,VALID,93.5849,VALID,0,VALID,23.7793,VALID,63,VALID,0.726953,
2011-11-12, 02:13:04,VALID,1000.69,VALID,0,VALID,93.5926,VALID,0,VALID,23.7597,VALID,63,VALID,0.748047,
2011-11-12, 02:14:04,VALID,1000.65,VALID,0,VALID,93.6536,VALID,0,VALID,23.7988,VALID,63,VALID,0.521875,
2011-11-12, 02:15:04,VALID,1000.66,VALID,0,VALID,93.6688,VALID,0,VALID,23.7988,VALID,63,VALID,0.285937,
2011-11-12, 02:16:04,VALID,1000.64,VALID,0,VALID,93.707,VALID,0,VALID,23.8183,VALID,63,VALID,0.174609,
2011-11-12, 02:17:04,VALID,1000.66,VALID,0,VALID,93.7299,VALID,0,VALID,23.7988,VALID,63,VALID,0,
2011-11-12, 02:18:04,VALID,1000.65,VALID,0,VALID,93.7451,VALID,0,VALID,23.7988,VALID,63,VALID,0,
2011-11-12, 02:19:04,VALID,1000.62,VALID,0,VALID,93.7451,VALID,0,VALID,23.7988,VALID,63,VALID,0,
2011-11-12, 02:20:04,VALID,1000.58,VALID,0,VALID,93.7604,VALID,0,VALID,23.7988,VALID,63,VALID,0,
2011-11-12, 02:21:04,VALID,1000.55,VALID,0,VALID,93.7757,VALID,0,VALID,23.7988,VALID,63,VALID,0,
2011-11-12, 02:22:04,VALID,1000.52,VALID,0,VALID,93.7909,VALID,0,VALID,23.8006,VALID,63,VALID,0,
2011-11-12, 02:23:04,VALID,1000.52,VALID,0,VALID,93.8062,VALID,0,VALID,23.7811,VALID,63,VALID,0,
2011-11-12, 02:24:04,VALID,1000.49,VALID,0,VALID,93.8138,VALID,0,VALID,23.7402,VALID,63,VALID,0,
2011-11-12, 02:25:04,VALID,1000.49,VALID,0,VALID,93.8062,VALID,0,VALID,23.7012,VALID,63,VALID,0,
2011-11-12, 02:26:04,VALID,1000.45,VALID,0,VALID,93.8214,VALID,0,VALID,23.7012,VALID,63,VALID,0,
2011-11-12, 02:27:04,VALID,1000.41,VALID,0,VALID,93.8214,VALID,0,VALID,23.6817,VALID,63,VALID,0,
2011-11-12, 02:28:04,VALID,1000.38,VALID,0,VALID,93.8367,VALID,0,VALID,23.6835,VALID,63,VALID,0,
2011-11-12, 02:29:04,VALID,1000.33,VALID,0,VALID,93.8596,VALID,0,VALID,23.6427,VALID,63,VALID,0,
2011-11-12, 02:30:04,VALID,1000.36,VALID,0,VALID,93.8901,VALID,0,VALID,23.6622,VALID,63,VALID,0.16875,
2011-11-12, 02:31:04,VALID,1000.36,VALID,0,VALID,93.8825,VALID,0,VALID,23.6036,VALID,63,VALID,0.371875,
2011-11-12, 02:32:04,VALID,1000.34,VALID,0,VALID,93.9054,VALID,0,VALID,23.5646,VALID,63,VALID,0.5,
2011-11-12, 02:33:04,VALID,1000.35,VALID,0,VALID,93.9283,VALID,0,VALID,23.6036,VALID,63,VALID,0.553125,
2011-11-12, 02:34:04,VALID,1000.35,VALID,0,VALID,93.9511,VALID,0,VALID,23.6232,VALID,63,VALID,0.613672,
2011-11-12, 02:35:04,VALID,1000.38,VALID,0,VALID,93.974,VALID,0,VALID,23.5841,VALID,63,VALID,0.680078,
2011-11-12, 02:36:04,VALID,1000.38,VALID,0,VALID,93.9817,VALID,0,VALID,23.5061,VALID,63,VALID,0.586328,
2011-11-12, 02:37:04,VALID,1000.38,VALID,0,VALID,93.9817,VALID,0,VALID,23.428,VALID,63,VALID,0.450391,
2011-11-12, 02:38:04,VALID,1000.42,VALID,0,VALID,94.0045,VALID,0,VALID,23.389,VALID,63,VALID,0.412891,
2011-11-12, 02:39:04,VALID,1000.4,VALID,0,VALID,94.0122,VALID,0,VALID,23.3695,VALID,63,VALID,0.819922,
2011-11-12, 02:40:04,VALID,1000.4,VALID,0,VALID,94.0045,VALID,0,VALID,23.3305,VALID,39,VALID,0.851563,
2011-11-12, 02:41:04,VALID,1000.38,VALID,0,VALID,94.0427,VALID,0,VALID,23.311,VALID,39,VALID,0.805859,
2011-11-12, 02:42:04,VALID,1000.37,VALID,0,VALID,94.0427,VALID,0,VALID,23.311,VALID,39,VALID,0.675781,
2011-11-12, 02:43:04,VALID,1000.37,VALID,0,VALID,94.0503,VALID,0,VALID,23.2719,VALID,39,VALID,0.643359,
2011-11-12, 02:44:04,VALID,1000.35,VALID,0,VALID,94.0656,VALID,0,VALID,23.311,VALID,39,VALID,0.664844,
2011-11-12, 02:45:04,VALID,1000.36,VALID,0,VALID,94.0808,VALID,0,VALID,23.35,VALID,39,VALID,0.467578,
2011-11-12, 02:46:04,VALID,1000.36,VALID,0,VALID,94.0885,VALID,0,VALID,23.389,VALID,39,VALID,0.257813,
2011-11-12, 02:47:04,VALID,1000.33,VALID,0,VALID,94.0961,VALID,0,VALID,23.389,VALID,39,VALID,0,
2011-11-12, 02:48:04,VALID,1000.33,VALID,0,VALID,94.1266,VALID,0,VALID,23.3695,VALID,39,VALID,0,
2011-11-12, 02:49:04,VALID,1000.26,VALID,0,VALID,94.119,VALID,0,VALID,23.3695,VALID,39,VALID,0,
2011-11-12, 02:50:04,VALID,1000.28,VALID,0,VALID,94.1266,VALID,0,VALID,23.3695,VALID,39,VALID,0,
2011-11-12, 02:51:04,VALID,1000.27,VALID,0,VALID,94.1495,VALID,0,VALID,23.389,VALID,39,VALID,0,
2011-11-12, 02:52:04,VALID,1000.23,VALID,0,VALID,94.1419,VALID,0,VALID,23.389,VALID,39,VALID,0,
2011-11-12, 02:53:04,VALID,1000.23,VALID,0,VALID,94.1648,VALID,0,VALID,23.428,VALID,39,VALID,0,
2011-11-12, 02:54:04,VALID,1000.23,VALID,0,VALID,94.1953,VALID,0,VALID,23.428,VALID,39,VALID,0,
2011-11-12, 02:55:04,VALID,1000.25,VALID,0,VALID,94.1953,VALID,0,VALID,23.389,VALID,39,VALID,0,
2011-11-12, 02:56:04,VALID,1000.25,VALID,0,VALID,94.1877,VALID,0,VALID,23.389,VALID,39,VALID,0,
2011-11-12, 02:57:04,VALID,1000.29,VALID,0,VALID,94.2105,VALID,0,VALID,23.3695,VALID,39,VALID,0,
2011-11-12, 02:58:04,VALID,1000.31,VALID,0,VALID,94.2258,VALID,0,VALID,23.35,VALID,39,VALID,0,
2011-11-12, 02:59:04,VALID,1000.3,VALID,0,VALID,94.2182,VALID,0,VALID,23.311,VALID,39,VALID,0,
2011-11-12, 03:00:04,VALID,1000.33,VALID,0,VALID,94.2334,VALID,0,VALID,23.2719,VALID,39,VALID,0,
2011-11-12, 03:01:04,VALID,1000.36,VALID,0,VALID,94.2258,VALID,0,VALID,23.2524,VALID,39,VALID,0,
2011-11-12, 03:02:04,VALID,1000.35,VALID,0,VALID,94.2411,VALID,0,VALID,23.2719,VALID,39,VALID,0,
2011-11-12, 03:03:04,VALID,1000.38,VALID,0,VALID,94.2334,VALID,0,VALID,23.2915,VALID,39,VALID,0,
2011-11-12, 03:04:04,VALID,1000.39,VALID,0,VALID,94.2334,VALID,0,VALID,23.311,VALID,39,VALID,0,
2011-11-12, 03:05:04,VALID,1000.42,VALID,0,VALID,94.2487,VALID,0,VALID,23.3305,VALID,39,VALID,0,
2011-11-12, 03:06:04,VALID,1000.45,VALID,0,VALID,94.2334,VALID,0,VALID,23.35,VALID,39,VALID,0,
2011-11-12, 03:07:04,VALID,1000.47,VALID,0,VALID,94.2563,VALID,0,VALID,23.3695,VALID,39,VALID,0,
2011-11-12, 03:08:04,VALID,1000.48,VALID,0,VALID,94.264,VALID,0,VALID,23.3695,VALID,39,VALID,0,
2011-11-12, 03:09:04,VALID,1000.53,VALID,0,VALID,94.2334,VALID,0,VALID,23.389,VALID,39,VALID,0,
2011-11-12, 03:10:04,VALID,1000.55,VALID,0,VALID,94.2792,VALID,0,VALID,23.3695,VALID,39,VALID,0,
2011-11-12, 03:11:04,VALID,1000.6,VALID,0,VALID,94.2792,VALID,0,VALID,23.35,VALID,39,VALID,0,
2011-11-12, 03:12:04,VALID,1000.63,VALID,0,VALID,94.2945,VALID,0,VALID,23.3127,VALID,39,VALID,0,
2011-11-12, 03:13:04,VALID,1000.69,VALID,0,VALID,94.3097,VALID,0,VALID,23.2915,VALID,39,VALID,0,
2011-11-12, 03:14:04,VALID,1000.7,VALID,0,VALID,94.3097,VALID,0,VALID,23.2719,VALID,39,VALID,0,
2011-11-12, 03:15:04,VALID,1000.72,VALID,0,VALID,94.325,VALID,0,VALID,23.2329,VALID,39,VALID,0,
2011-11-12, 03:16:04,VALID,1000.71,VALID,0,VALID,94.3021,VALID,0,VALID,23.2329,VALID,39,VALID,0,
2011-11-12, 03:17:04,VALID,1000.71,VALID,0,VALID,94.3097,VALID,0,VALID,23.2719,VALID,39,VALID,0,
2011-11-12, 03:18:04,VALID,1000.74,VALID,0,VALID,94.3021,VALID,0,VALID,23.2524,VALID,39,VALID,0,
2011-11-12, 03:19:04,VALID,1000.75,VALID,0,VALID,94.2945,VALID,0,VALID,23.2329,VALID,39,VALID,0,
2011-11-12, 03:20:04,VALID,1000.76,VALID,0,VALID,94.3174,VALID,0,VALID,23.2524,VALID,39,VALID,0,
2011-11-12, 03:21:04,VALID,1000.76,VALID,0,VALID,94.3174,VALID,0,VALID,23.2719,VALID,39,VALID,0,
2011-11-12, 03:22:04,VALID,1000.71,VALID,0,VALID,94.3326,VALID,0,VALID,23.2719,VALID,40,VALID,0,
2011-11-12, 03:23:04,VALID,1000.7,VALID,0,VALID,94.3403,VALID,0,VALID,23.2312,VALID,56,VALID,0.142188,
2011-11-12, 03:24:04,VALID,1000.69,VALID,0,VALID,94.3403,VALID,0,VALID,23.2134,VALID,69,VALID,0.833594,
2011-11-12, 03:25:04,VALID,1000.68,VALID,0,VALID,94.3555,VALID,0,VALID,23.2329,VALID,82,VALID,0.838281,
2011-11-12, 03:26:04,VALID,1000.69,VALID,0,VALID,94.3403,VALID,0,VALID,23.2524,VALID,83,VALID,0.623828,
2011-11-12, 03:27:04,VALID,1000.71,VALID,0,VALID,94.3479,VALID,0,VALID,23.2702,VALID,83,VALID,0.583203,
2011-11-12, 03:28:04,VALID,1000.71,VALID,0,VALID,94.3174,VALID,0,VALID,23.2702,VALID,83,VALID,0.557031,
2011-11-12, 03:29:04,VALID,1000.68,VALID,0,VALID,94.3326,VALID,0,VALID,23.311,VALID,83,VALID,0.665234,
2011-11-12, 03:30:04,VALID,1000.71,VALID,0,VALID,94.325,VALID,0,VALID,23.3305,VALID,83,VALID,0.644922,
2011-11-12, 03:31:04,VALID,1000.69,VALID,0,VALID,94.3326,VALID,0,VALID,23.3287,VALID,107,VALID,0.696484,
2011-11-12, 03:32:04,VALID,1000.63,VALID,0,VALID,94.325,VALID,0,VALID,23.3482,VALID,107,VALID,0.591797,
2011-11-12, 03:33:04,VALID,1000.59,VALID,0,VALID,94.3174,VALID,0,VALID,23.4085,VALID,119,VALID,0.779688,
2011-11-12, 03:34:04,VALID,1000.54,VALID,0,VALID,94.3097,VALID,0,VALID,23.4671,VALID,124,VALID,0.967969,
2011-11-12, 03:35:04,VALID,1000.48,VALID,0,VALID,94.3021,VALID,0,VALID,23.5256,VALID,138,VALID,0.801172,
2011-11-12, 03:36:04,VALID,1000.47,VALID,0,VALID,94.3174,VALID,0,VALID,23.5238,VALID,138,VALID,1.06445,
2011-11-12, 03:37:04,VALID,1000.47,VALID,0,VALID,94.325,VALID,0,VALID,23.5646,VALID,138,VALID,0.685547,
2011-11-12, 03:38:04,VALID,1000.5,VALID,0,VALID,94.3174,VALID,0,VALID,23.5841,VALID,142,VALID,0.851953,
2011-11-12, 03:39:04,VALID,1000.54,VALID,0,VALID,94.3326,VALID,0,VALID,23.5823,VALID,143,VALID,0.425,
2011-11-12, 03:40:04,VALID,1000.59,VALID,0,VALID,94.3174,VALID,0,VALID,23.6232,VALID,143,VALID,0.3375,
2011-11-12, 03:41:04,VALID,1000.63,VALID,0,VALID,94.3326,VALID,0,VALID,23.6427,VALID,143,VALID,0.185156,
2011-11-12, 03:42:04,VALID,1000.62,VALID,0,VALID,94.3097,VALID,0,VALID,23.6427,VALID,143,VALID,0.0574219,
2011-11-12, 03:43:04,VALID,1000.66,VALID,0,VALID,94.3326,VALID,0,VALID,23.6214,VALID,143,VALID,0,
2011-11-12, 03:44:04,VALID,1000.67,VALID,0,VALID,94.3174,VALID,0,VALID,23.6232,VALID,130,VALID,0,
2011-11-12, 03:45:04,VALID,1000.67,VALID,0,VALID,94.325,VALID,0,VALID,23.6214,VALID,50,VALID,0,
2011-11-12, 03:46:04,VALID,1000.68,VALID,0,VALID,94.3326,VALID,0,VALID,23.6409,VALID,48,VALID,0,
2011-11-12, 03:47:04,VALID,1000.68,VALID,0,VALID,94.3097,VALID,0,VALID,23.6019,VALID,43,VALID,0,
2011-11-12, 03:48:04,VALID,1000.71,VALID,0,VALID,94.3021,VALID,0,VALID,23.5646,VALID,30,VALID,0.136328,
2011-11-12, 03:49:04,VALID,1000.72,VALID,0,VALID,94.3021,VALID,0,VALID,23.5061,VALID,30,VALID,0.845703,
2011-11-12, 03:50:04,VALID,1000.73,VALID,0,VALID,94.3021,VALID,0,VALID,23.4671,VALID,30,VALID,0.822656,
2011-11-12, 03:51:04,VALID,1000.79,VALID,0,VALID,94.2868,VALID,0,VALID,23.4085,VALID,30,VALID,0.635547,
2011-11-12, 03:52:04,VALID,1000.81,VALID,0,VALID,94.2868,VALID,0,VALID,23.389,VALID,30,VALID,0.536328,